Location: Observatory
(52.1446°N, 0.4624°W)
Time: 18:20:37
(UTC+00:00)

ISS - Pass Details

Date: 29 November 2021
Orbit: 417 x 422 km, 51.6° (Epoch: 06 December)

Event Time Altitude Azimuth Distance (km) Brightness Sun altitude
Rises 19:15:39 0° 281° (W) 2,380 1.2 -29.9°
Reaches altitude 10° 19:17:47 10° 276° (W) 1,513 0.0 -30.2°
Enters shadow 19:18:29 15° 273° (W) 1,244 -0.6 -30.3°
